This demonstration page uses our WeatherBlox Daily Observations layout. Learn more.

Left ArrowRight Arrow

41.86663, -103.66717

Hourly Observations for November 24, 2019

Temp ( °F °C ) Dew Point ( °F °C ) Humidity (%) Winds ( mph kmh ) Pressure ( in mb ) Visibility ( mi km ) Precip ( " mm )
12:53 am 00:53 Clear 29 -1.7 23 -5 78 78 N 7 11 29.97 1015 10 16 0.00 0.00
1:53 am 01:53 Clear 30 -1.1 23 -5 75 75 NNW 5 7 29.94 1014 10 16 0.00 0.00
2:53 am 02:53 Clear 32 0 24 -4.4 73 73 WNW 8 13 29.92 1013 10 16 0.00 0.00
3:53 am 03:53 Clear 34 1.1 24 -4.4 67 67 WNW 8 13 29.90 1013 10 16 0.00 0.00
4:53 am 04:53 Clear 39 3.9 23 -5 53 53 WNW 12 19 29.88 1012 10 16 0.00 0.00
5:53 am 05:53 Clear 47 8.3 21 -6.1 36 36 WNW 21 33 29.83 1010 10 16 0.00 0.00
6:53 am 06:53 Clear 47 8.3 19 -7.2 33 33 WNW 15 24 29.82 1010 10 16 0.00 0.00
7:53 am 07:53 Sunny 49 9.4 20 -6.7 32 32 W 18 30 29.81 1010 10 16 0.00 0.00
8:53 am 08:53 Sunny 52 11.1 20 -6.7 28 28 WNW 20 31 29.83 1010 10 16 0.00 0.00
9:53 am 09:53 Sunny 55 12.8 20 -6.7 25 25 W 20 31 29.81 1010 10 16 0.00 0.00
10:53 am 10:53 Sunny 59 15 20 -6.7 22 22 W 22 35 29.78 1008 10 16 0.00 0.00
11:53 am 11:53 Sunny 57 13.9 19 -7.2 23 23 WNW 26 43 29.75 1007 10 16 0.00 0.00
12:53 pm 12:53 Sunny 59 15 19 -7.2 21 21 W 23 37 29.73 1007 10 16 0.00 0.00
1:53 pm 13:53 Sunny 60 15.6 18 -7.8 19 19 WNW 18 30 29.71 1006 10 16 0.00 0.00
2:53 pm 14:53 Sunny 57 13.9 18 -7.8 22 22 WNW 20 31 29.69 1006 10 16 0.00 0.00
3:53 pm 15:53 Sunny 55 12.8 18 -7.8 23 23 WNW 18 30 29.68 1005 10 16 0.00 0.00
4:53 pm 16:53 Clear 53 11.7 20 -6.7 27 27 WNW 26 43 29.67 1005 10 16 0.00 0.00
5:53 pm 17:53 Clear 52 11.1 21 -6.1 30 30 W 16 26 29.66 1004 10 16 0.00 0.00
6:53 pm 18:53 Clear 52 11.1 23 -5 32 32 WNW 16 26 29.66 1004 10 16 0.00 0.00
7:53 pm 19:53 Clear 50 10 24 -4.4 36 36 WNW 14 22 29.66 1004 10 16 0.00 0.00
8:53 pm 20:53 Clear 49 9.4 25 -3.9 39 39 W 13 20 29.66 1004 10 16 0.00 0.00
9:53 pm 21:53 Partly Cloudy 50 10 26 -3.3 39 39 W 16 26 29.65 1004 10 16 0.00 0.00
10:53 pm 22:53 Partly Cloudy 44 6.7 26 -3.3 49 49 WNW 7 11 29.67 1005 10 16 0.00 0.00
11:53 pm 23:53 Mostly Clear 41 5 26 -3.3 55 55 NNW 10 17 29.70 1006 10 16 0.00 0.00

Powered by AerisWeather